"startDT [UTC]","vpos","CH4 [ppm]","stdev(CH4) [ppm]","CO2 [ppm]","stdev(CO2) [ppm]","H2O_reported [%]","stdev(H2O_reported)","CavityPressure [torr]","CavityTemp [C]","OutletValve","CH4_dry [ppm]","CO2_dry [ppm]","DasTemp [C]","EtalonTemp [C]","WarmBoxTemp [C]","MPVPosition","T_ECpre [C]","T_EC1 [C]","T_EC2 [C]","p_inlet [hPa]","p_in [hPa]","p_out [hPa]","T_inlet [C]","RH_inlet [%]","dwpt_inlet [C]","T_vent [C]","RH_vent [%]","dwpt_vent [C]","flow_vent [l min-1]","flow_inlet [l min-1]","dwpt_sample [C]","T_room [C]"
2015-07-28 00:00:00,0.0,1.89807,0.00030,386.114,0.056,1.0581,0.0024,139.996,45.000,34411.15069,1.91849,391.199,32.315,45.068,45.000,0.00,0.10,-272.73,-272.79,-5,995,-4,22.8,30.2,4.4,22.6,31.1,4.6,5.73,2.01,2.0,26.9
2015-07-28 00:01:00,0.0,1.89808,0.00038,386.038,0.064,1.0568,0.0020,139.998,45.000,34411.22834,1.91848,391.116,32.313,45.068,45.000,0.00,0.10,-272.72,-272.79,-5,994,-5,22.8,30.1,4.4,22.6,31.0,4.6,5.73,1.91,2.0,26.9
2015-07-28 00:02:00,0.0,1.89803,0.00034,385.999,0.047,1.0559,0.0018,140.000,45.000,34411.39835,1.91848,391.072,32.313,45.068,45.000,0.00,0.10,-272.73,-272.80,-8,993,-1,22.8,30.2,4.4,22.6,31.0,4.6,5.73,1.87,2.0,26.9
2015-07-28 00:03:00,0.0,1.89828,0.00034,386.098,0.052,1.0585,0.0016,140.002,45.000,34411.68254,1.91867,391.182,32.314,45.068,45.000,0.00,0.10,-272.74,-272.80,-8,994,-9,22.8,30.2,4.4,22.6,31.0,4.6,5.73,1.97,2.0,26.9
2015-07-28 00:04:00,0.0,1.89892,0.00053,386.015,0.036,1.0570,0.0025,140.003,45.000,34411.36329,1.91933,391.094,32.313,45.068,45.000,0.00,0.10,-272.73,-272.79,-4,995,-4,22.8,30.1,4.4,22.6,31.0,4.6,5.73,2.02,2.0,26.9
2015-07-28 00:05:00,0.0,1.89886,0.00036,385.861,0.106,1.0554,0.0023,139.998,45.000,34410.57179,1.91928,390.935,32.313,45.068,45.000,0.00,0.10,-272.74,-272.79,-4,994,-2,22.8,30.2,4.4,22.6,31.0,4.6,5.73,1.93,2.0,26.9
2015-07-28 00:06:00,0.0,1.89892,0.00038,385.637,0.099,1.0608,0.0024,139.997,45.000,34408.71912,1.91942,390.730,32.313,45.068,45.000,0.00,0.10,-272.74,-272.80,-5,995,-1,22.8,30.3,4.5,22.6,31.1,4.6,5.73,1.86,2.0,26.9
2015-07-28 00:07:00,0.0,1.89952,0.00056,385.686,0.106,1.0643,0.0026,139.999,45.000,34408.25355,1.92006,390.795,32.313,45.068,45.000,0.00,0.10,-272.72,-272.79,-6,995,-7,22.8,30.4,4.5,22.6,31.2,4.7,5.73,1.94,2.0,26.9
2015-07-28 00:08:00,0.0,1.89982,0.00022,385.705,0.078,1.0597,0.0021,140.001,45.000,34409.79855,1.92032,390.798,32.318,45.068,45.000,0.00,0.10,-272.73,-272.79,-6,994,-4,22.8,30.2,4.4,22.6,31.1,4.6,5.73,2.03,2.0,26.9
2015-07-28 00:09:00,0.0,1.90027,0.00034,385.635,0.042,1.0590,0.0021,140.001,45.000,34410.07930,1.92075,390.714,32.318,45.068,45.000,0.00,0.10,-272.74,-272.79,-1,993,-3,22.8,30.3,4.4,22.6,31.0,4.6,5.73,1.96,2.0,26.9
2015-07-28 00:10:00,0.0,1.90036,0.00025,385.618,0.061,1.0621,0.0021,140.002,45.000,34411.88691,1.92088,390.717,32.315,45.068,45.000,0.00,0.10,-272.73,-272.79,-4,995,-3,22.8,30.3,4.5,22.6,31.1,4.7,5.73,1.86,2.0,26.9
2015-07-28 00:11:00,0.0,1.90125,0.00072,385.595,0.095,1.0636,0.0013,139.997,45.000,34409.45228,1.92177,390.698,32.313,45.068,45.000,0.00,0.10,-272.72,-272.79,-6,995,-6,22.8,30.4,4.5,22.6,31.2,4.7,5.73,1.93,2.0,26.9
2015-07-28 00:12:00,0.0,1.90131,0.00039,385.394,0.097,1.0637,0.0020,140.002,45.000,34410.05682,1.92194,390.507,32.313,45.068,45.000,0.00,0.10,-272.73,-272.80,-8,994,-4,22.8,30.4,4.5,22.6,31.2,4.7,5.73,2.03,2.0,26.9
2015-07-28 00:13:00,0.0,1.90178,0.00046,385.374,0.118,1.0675,0.0018,139.999,45.000,34409.74907,1.92242,390.489,32.315,45.068,45.000,0.00,0.10,-272.73,-272.80,-5,994,-6,22.8,30.5,4.6,22.6,31.3,4.7,5.73,1.97,2.0,26.9
2015-07-28 00:14:00,0.0,1.90203,0.00029,385.517,0.044,1.0657,0.0016,140.000,45.000,34407.77883,1.92269,390.630,32.323,45.068,45.000,0.00,0.10,-272.72,-272.79,-4,995,-7,22.8,30.4,4.5,22.6,31.2,4.7,5.73,1.87,2.0,26.9
2015-07-28 00:15:00,0.0,1.90159,0.00060,385.483,0.132,1.0634,0.0018,140.000,45.000,34407.59957,1.92221,390.583,32.343,45.068,45.000,0.00,0.10,-272.73,-272.79,-10,994,-3,22.8,30.4,4.5,22.6,31.2,4.7,5.73,1.90,2.0,26.9
2015-07-28 00:16:00,0.0,1.90004,0.00057,385.614,0.068,1.0645,0.0018,140.000,45.000,34410.80775,1.92072,390.726,32.338,45.068,45.000,0.00,0.10,-272.74,-272.80,-9,994,-6,22.8,30.4,4.5,22.6,31.2,4.7,5.73,2.01,2.0,26.9
2015-07-28 00:17:00,0.0,1.89953,0.00041,385.719,0.149,1.0646,0.0018,140.003,45.000,34411.19370,1.92017,390.821,32.327,45.068,45.000,0.00,0.10,-272.73,-272.79,-11,995,-4,22.8,30.4,4.5,22.6,31.2,4.7,5.73,1.99,2.0,26.9
2015-07-28 00:18:00,0.0,1.89871,0.00029,385.763,0.055,1.0648,0.0017,139.999,45.000,34410.37775,1.91932,390.880,32.342,45.068,45.000,0.00,0.10,-272.73,-272.79,-6,994,-5,22.8,30.4,4.5,22.6,31.2,4.7,5.73,1.87,2.0,27.0
2015-07-28 00:19:00,0.0,1.89924,0.00052,385.890,0.093,1.0654,0.0023,140.000,45.000,34409.67395,1.91986,391.000,32.329,45.068,45.000,0.00,0.10,-272.73,-272.79,-0,994,-5,22.8,30.4,4.5,22.6,31.3,4.7,5.73,1.89,2.0,26.9
2015-07-28 00:20:00,0.0,1.89912,0.00053,385.943,0.075,1.0634,0.0013,139.997,45.000,34408.14123,1.91970,391.051,32.321,45.068,45.000,0.00,0.10,-272.73,-272.79,-3,995,-3,22.8,30.3,4.5,22.6,31.2,4.7,5.73,2.01,2.0,26.9
2015-07-28 00:21:00,0.0,1.89862,0.00036,386.070,0.073,1.0632,0.0021,140.001,45.000,34410.11975,1.91914,391.176,32.313,45.068,45.000,0.00,0.10,-272.73,-272.79,-10,994,-1,22.8,30.3,4.5,22.6,31.2,4.7,5.73,2.00,2.0,26.9
2015-07-28 00:22:00,0.0,1.89866,0.00031,386.116,0.047,1.0615,0.0024,140.000,45.000,34406.99696,1.91921,391.217,32.311,45.068,45.000,0.00,0.10,-272.73,-272.79,-2,995,-4,22.8,30.2,4.4,22.6,31.1,4.6,5.73,1.88,2.0,26.9
2015-07-28 00:23:00,0.0,1.89800,0.00033,386.140,0.096,1.0607,0.0014,140.002,45.000,34406.81204,1.91853,391.240,32.310,45.068,45.000,0.00,0.10,-272.73,-272.80,-9,993,-7,22.8,30.2,4.4,22.6,31.1,4.6,5.73,1.88,2.0,26.9
2015-07-28 00:24:00,0.0,1.89774,0.00030,386.133,0.084,1.0600,0.0024,140.003,45.000,34408.90123,1.91823,391.221,32.308,45.068,45.000,0.00,0.10,-272.73,-272.79,-7,993,-6,22.8,30.2,4.4,22.6,31.1,4.6,5.73,2.00,2.0,26.9
2015-07-28 00:25:00,0.0,1.89770,0.00033,386.103,0.108,1.0564,0.0023,140.001,45.000,34410.60653,1.91811,391.188,32.310,45.068,45.000,0.00,0.10,-272.73,-272.79,-7,993,-4,22.8,30.1,4.4,22.6,31.0,4.6,5.73,2.02,2.0,26.9
2015-07-28 00:26:00,0.0,1.89690,0.00037,386.257,0.071,1.0571,0.0016,140.001,45.000,34412.01065,1.91738,391.331,32.310,45.068,45.000,0.00,0.10,-272.73,-272.79,-6,997,-5,22.8,30.2,4.4,22.6,31.0,4.6,5.73,1.90,2.0,26.9
2015-07-28 00:27:00,0.0,1.89683,0.00029,386.195,0.063,1.0561,0.0026,140.000,45.000,34413.79228,1.91720,391.270,32.313,45.068,45.000,0.00,0.10,-272.73,-272.79,-7,991,-4,22.8,30.1,4.4,22.6,31.0,4.6,5.73,1.87,2.0,26.9
2015-07-28 00:28:00,0.0,1.89678,0.00055,386.220,0.087,1.0550,0.0011,140.000,45.000,34412.86472,1.91720,391.285,32.313,45.068,45.000,0.00,0.10,-272.72,-272.79,-8,994,-5,22.8,30.1,4.4,22.6,30.9,4.6,5.73,1.97,2.0,26.9
2015-07-28 00:29:00,0.0,1.89444,0.00066,386.492,0.084,1.0562,0.0027,140.003,45.000,34414.43461,1.91493,391.565,32.310,45.068,45.000,0.00,0.31,-270.85,-270.31,-7,989,-5,22.8,30.1,4.4,22.6,30.9,4.6,5.43,2.14,-1.6,27.0
2015-07-28 00:30:00,0.0,1.89372,0.00042,386.599,0.039,1.0532,0.0021,140.002,45.000,34413.78678,1.91405,391.666,32.312,45.068,45.000,0.00,0.10,-272.74,-272.79,-7,997,-3,22.8,30.0,4.3,22.6,30.9,4.5,5.73,1.92,2.0,26.9
2015-07-28 00:31:00,0.0,1.89408,0.00031,386.666,0.037,1.0498,0.0028,139.998,45.000,34411.30722,1.91430,391.713,32.309,45.068,45.000,0.00,0.10,-272.73,-272.79,-6,995,-3,22.8,29.9,4.3,22.6,30.8,4.5,5.73,1.86,2.0,27.0
2015-07-28 00:32:00,0.0,1.89363,0.00035,386.553,0.097,1.0500,0.0017,139.999,45.000,34412.36760,1.91387,391.608,32.304,45.068,45.000,0.00,0.10,-272.73,-272.79,-6,992,-3,22.8,29.9,4.3,22.6,30.7,4.5,5.73,1.96,2.0,26.9
2015-07-28 00:33:00,0.0,1.89361,0.00042,386.501,0.054,1.0554,0.0024,140.001,45.000,34409.22837,1.91395,391.575,32.315,45.068,45.000,0.00,0.10,-272.74,-272.79,-5,995,-6,22.8,30.1,4.4,22.6,30.9,4.6,5.73,2.02,2.0,27.0
2015-07-28 00:34:00,0.0,1.89348,0.00034,386.542,0.039,1.0535,0.0022,139.999,45.000,34409.01398,1.91379,391.609,32.313,45.068,45.000,0.00,0.10,-272.73,-272.79,-8,995,-5,22.8,30.0,4.3,22.6,30.9,4.5,5.73,1.94,2.0,26.9
2015-07-28 00:35:00,0.0,1.89345,0.00034,386.676,0.081,1.0512,0.0026,140.003,45.000,34411.91521,1.91374,391.728,32.313,45.068,45.000,0.00,0.10,-272.73,-272.79,-8,999,-4,22.8,29.9,4.3,22.6,30.8,4.5,5.73,1.86,2.0,27.0
2015-07-28 00:36:00,0.0,1.89309,0.00036,386.764,0.030,1.0485,0.0017,140.001,45.000,34409.92837,1.91329,391.810,32.321,45.068,45.000,0.00,0.10,-272.73,-272.80,-8,993,-5,22.8,29.9,4.3,22.6,30.7,4.5,5.73,1.94,2.0,27.0
2015-07-28 00:37:00,0.0,1.89346,0.00041,386.727,0.078,1.0504,0.0020,139.998,45.000,34411.56000,1.91368,391.779,32.313,45.068,45.000,0.00,0.10,-272.73,-272.79,-5,995,-4,22.8,29.9,4.3,22.6,30.8,4.5,5.73,2.03,2.0,26.9
2015-07-28 00:38:00,0.0,1.89323,0.00065,386.770,0.046,1.0492,0.0026,139.999,45.000,34411.69304,1.91352,391.820,32.313,45.068,45.000,0.00,0.10,-272.72,-272.79,-5,996,-6,22.8,29.9,4.3,22.6,30.7,4.5,5.73,1.96,2.0,27.0
2015-07-28 00:39:00,0.0,1.89251,0.00040,386.903,0.041,1.0478,0.0016,139.999,45.000,34411.68261,1.91272,391.947,32.313,45.068,45.000,0.00,0.10,-272.73,-272.79,-7,994,-5,22.8,29.9,4.3,22.6,30.7,4.5,5.73,1.87,2.0,27.0
2015-07-28 00:40:00,0.0,1.89270,0.00032,386.742,0.059,1.0478,0.0015,140.004,45.000,34411.65916,1.91288,391.788,32.307,45.068,45.000,0.00,0.10,-272.73,-272.80,-7,995,-5,22.8,29.9,4.3,22.6,30.7,4.4,5.73,1.92,2.0,26.9
2015-07-28 00:41:00,0.0,1.89263,0.00050,386.783,0.074,1.0468,0.0016,140.001,45.000,34411.09383,1.91274,391.813,32.307,45.068,45.000,0.00,0.10,-272.73,-272.79,-8,994,-7,22.8,29.9,4.3,22.6,30.7,4.5,5.73,2.02,2.0,27.0
2015-07-28 00:42:00,0.0,1.89235,0.00041,386.821,0.086,1.0465,0.0019,140.001,45.000,34412.16901,1.91259,391.857,32.303,45.068,45.000,0.00,0.10,-272.73,-272.80,-4,994,-5,22.8,29.8,4.3,22.6,30.6,4.4,5.73,1.98,2.0,27.0
2015-07-28 00:43:00,0.0,1.89220,0.00033,386.771,0.134,1.0450,0.0017,140.001,45.000,34413.07292,1.91231,391.808,32.293,45.068,45.000,0.00,0.10,-272.73,-272.80,-7,994,-9,22.8,29.8,4.2,22.6,30.6,4.4,5.73,1.87,2.0,27.0
2015-07-28 00:44:00,0.0,1.89232,0.00043,386.748,0.105,1.0477,0.0024,139.997,45.000,34409.54384,1.91244,391.778,32.312,45.068,45.000,0.00,0.10,-272.73,-272.79,-9,994,-6,22.8,29.9,4.3,22.6,30.7,4.5,5.73,1.89,2.0,27.0
2015-07-28 00:45:00,0.0,1.89203,0.00039,386.749,0.098,1.0497,0.0023,140.002,45.000,34411.01180,1.91227,391.803,32.311,45.068,45.000,0.00,0.10,-272.73,-272.79,-10,995,-7,22.8,29.9,4.3,22.6,30.7,4.5,5.73,2.00,2.0,27.0
2015-07-28 00:46:00,0.0,1.89168,0.00042,386.822,0.059,1.0515,0.0018,140.000,45.000,34411.31577,1.91196,391.881,32.313,45.068,45.000,0.00,0.10,-272.74,-272.79,-11,996,1,22.8,30.0,4.3,22.6,30.8,4.5,5.73,2.01,2.0,26.9
2015-07-28 00:47:00,0.0,1.89149,0.00030,386.862,0.064,1.0495,0.0021,139.998,45.000,34412.42387,1.91170,391.913,32.312,45.068,45.000,0.00,0.10,-272.73,-272.79,-8,998,-6,22.8,29.9,4.3,22.6,30.8,4.5,5.73,1.90,2.0,27.0
2015-07-28 00:48:00,0.0,1.89071,0.00049,386.818,0.133,1.0508,0.0022,140.000,45.000,34411.50010,1.91101,391.868,32.313,45.068,45.000,0.00,0.10,-272.72,-272.79,-7,994,-4,22.8,30.0,4.3,22.6,30.8,4.5,5.73,1.88,2.0,26.9
2015-07-28 00:49:00,0.0,1.89043,0.00047,386.966,0.065,1.0520,0.0017,140.002,45.000,34411.99938,1.91066,392.038,32.316,45.068,45.000,0.00,0.10,-272.73,-272.79,-5,990,-6,22.8,30.0,4.3,22.6,30.8,4.5,5.73,1.98,2.0,27.0
2015-07-28 00:50:00,0.0,1.89009,0.00042,386.814,0.066,1.0512,0.0014,140.000,45.000,34411.81848,1.91030,391.872,32.315,45.068,45.000,0.00,0.10,-272.74,-272.79,-5,996,-4,22.9,30.0,4.4,22.6,30.8,4.5,5.73,2.02,2.0,26.9
2015-07-28 00:51:00,0.0,1.89016,0.00033,386.910,0.147,1.0504,0.0023,140.001,45.000,34411.41430,1.91041,391.970,32.314,45.068,45.000,0.00,0.10,-272.73,-272.79,-5,992,-3,22.8,29.9,4.3,22.6,30.7,4.5,5.73,1.93,2.0,26.9
2015-07-28 00:52:00,0.0,1.88963,0.00054,386.963,0.120,1.0482,0.0020,139.998,45.000,34410.82711,1.90982,392.008,32.313,45.068,45.000,0.00,0.10,-272.73,-272.79,-7,994,-6,22.8,29.8,4.3,22.6,30.7,4.5,5.73,1.86,2.0,26.9
2015-07-28 00:53:00,0.0,1.88939,0.00038,386.845,0.070,1.0492,0.0027,140.003,45.000,34413.03840,1.90958,391.891,32.313,45.068,45.000,0.00,0.10,-272.73,-272.80,-6,993,-3,22.9,29.9,4.3,22.6,30.7,4.5,5.73,1.95,2.0,26.9
2015-07-28 00:54:00,0.0,1.88947,0.00023,386.916,0.064,1.0469,0.0028,140.000,45.000,34410.62630,1.90961,391.959,32.317,45.068,45.000,0.00,0.10,-272.73,-272.79,-7,994,-4,22.8,29.8,4.3,22.6,30.7,4.5,5.73,2.02,2.0,27.0
2015-07-28 00:55:00,0.0,1.88970,0.00038,386.739,0.115,1.0483,0.0020,139.998,45.000,34410.25597,1.90980,391.779,32.315,45.068,45.000,0.00,0.10,-272.73,-272.79,-8,997,-5,22.9,29.9,4.3,22.6,30.7,4.5,5.73,1.96,2.0,27.0
2015-07-28 00:56:00,0.0,1.89051,0.00036,386.997,0.092,1.0461,0.0030,140.001,45.000,34410.19991,1.91066,392.034,32.313,45.068,45.000,0.00,0.10,-272.73,-272.80,-7,994,-4,22.9,29.8,4.2,22.6,30.6,4.5,5.73,1.87,2.0,26.9
2015-07-28 00:57:00,0.0,1.89003,0.00044,386.958,0.079,1.0430,0.0028,140.000,45.000,34411.76912,1.91012,391.979,32.312,45.068,45.000,0.00,0.10,-272.73,-272.80,-6,1001,-4,22.8,29.7,4.2,22.6,30.5,4.4,5.73,1.91,2.0,26.9
2015-07-28 00:58:00,0.0,1.89030,0.00042,386.917,0.059,1.0457,0.0025,139.996,45.000,34411.98613,1.91039,391.948,32.311,45.068,45.000,0.00,0.10,-272.73,-272.79,-6,993,-5,22.9,29.7,4.2,22.6,30.6,4.4,5.73,2.02,2.0,26.9
2015-07-28 00:59:00,0.0,1.89004,0.00037,386.902,0.074,1.0417,0.0016,139.999,45.000,34411.77392,1.91006,391.916,32.313,45.068,45.000,0.00,0.10,-272.73,-272.79,-7,994,-4,22.8,29.7,4.2,22.6,30.5,4.4,5.73,1.99,2.0,26.9
2015-07-28 01:00:00,0.0,1.89052,0.00040,387.069,0.065,1.0397,0.0024,140.002,45.000,34413.05628,1.91050,392.073,32.312,45.068,45.000,0.00,0.10,-272.74,-272.79,-6,994,-4,22.8,29.6,4.1,22.6,30.4,4.3,5.73,1.88,2.0,26.9
2015-07-28 01:01:00,0.0,1.89085,0.00052,386.984,0.088,1.0388,0.0018,140.001,45.000,34414.31847,1.91084,391.990,32.313,45.068,45.000,0.00,0.10,-272.73,-272.79,-6,996,-5,22.8,29.6,4.1,22.6,30.4,4.3,5.73,1.89,2.0,27.0
2015-07-28 01:02:00,0.0,1.89083,0.00043,387.038,0.129,1.0395,0.0015,139.997,45.000,34410.77565,1.91079,392.034,32.311,45.068,45.000,0.00,0.10,-272.73,-272.79,-7,995,-4,22.8,29.6,4.1,22.6,30.4,4.3,5.73,2.00,2.0,27.0
2015-07-28 01:03:00,0.0,1.89069,0.00038,387.062,0.069,1.0347,0.0014,139.998,45.000,34411.06460,1.91063,392.046,32.312,45.068,45.000,0.00,0.10,-272.73,-272.79,-6,993,-4,22.8,29.4,4.1,22.6,30.3,4.3,5.73,2.00,2.0,27.0
2015-07-28 01:04:00,0.0,1.89048,0.00031,387.078,0.078,1.0353,0.0016,139.999,45.000,34411.81787,1.91040,392.055,32.313,45.068,45.000,0.00,0.10,-272.73,-272.79,-6,996,-4,22.8,29.4,4.1,22.6,30.3,4.2,5.73,1.89,2.0,27.0
2015-07-28 01:05:00,0.0,1.89011,0.00045,387.134,0.082,1.0334,0.0009,139.996,45.000,34411.23569,1.91001,392.114,32.310,45.068,45.000,0.00,0.10,-272.72,-272.79,-7,994,-4,22.8,29.4,4.1,22.6,30.2,4.2,5.73,1.87,2.0,27.0
2015-07-28 01:06:00,0.0,1.88998,0.00027,387.028,0.065,1.0346,0.0016,140.001,45.000,34411.47118,1.90984,392.008,32.307,45.068,45.000,0.00,0.10,-272.74,-272.80,-7,995,-4,22.9,29.4,4.1,22.6,30.2,4.3,5.73,1.98,2.0,26.9
2015-07-28 01:07:00,0.0,1.89045,0.00051,386.992,0.080,1.0339,0.0015,140.001,45.000,34410.74081,1.91035,391.968,32.309,45.068,45.000,0.00,0.10,-272.73,-272.80,-6,996,-4,22.8,29.4,4.1,22.6,30.2,4.3,5.73,2.03,2.0,26.9
2015-07-28 01:08:00,0.0,1.89099,0.00038,387.054,0.048,1.0346,0.0022,139.996,45.000,34412.69687,1.91086,392.034,32.304,45.068,45.000,0.00,0.10,-272.73,-272.79,-7,995,-4,22.8,29.4,4.1,22.6,30.2,4.3,5.73,1.92,2.0,26.9
2015-07-28 01:09:00,0.0,1.89092,0.00039,387.094,0.070,1.0319,0.0017,139.998,45.000,34414.09340,1.91077,392.057,32.292,45.068,45.000,0.00,0.10,-272.73,-272.79,-7,994,-4,22.9,29.4,4.1,22.6,30.2,4.3,5.73,1.87,2.0,26.9
2015-07-28 01:10:00,0.0,1.89109,0.00036,387.117,0.055,1.0313,0.0023,139.997,45.000,34413.42182,1.91095,392.081,32.288,45.068,45.000,0.00,0.10,-272.74,-272.80,-6,994,-4,22.8,29.3,4.0,22.6,30.1,4.2,5.73,1.96,2.0,26.9
2015-07-28 01:11:00,0.0,1.89067,0.00046,387.003,0.057,1.0341,0.0021,139.998,45.000,34415.96768,1.91060,391.981,32.267,45.068,45.000,0.00,0.10,-272.73,-272.79,-6,995,-5,22.9,29.4,4.1,22.6,30.2,4.2,5.73,2.03,2.0,27.0
2015-07-28 01:12:00,0.0,1.89055,0.00052,387.066,0.051,1.0334,0.0024,140.000,45.000,34416.86234,1.91040,392.038,32.269,45.068,45.000,0.00,0.10,-272.73,-272.79,-7,995,-4,22.9,29.4,4.1,22.6,30.2,4.3,5.73,1.94,2.0,26.9
2015-07-28 01:13:00,0.0,1.89069,0.00047,387.091,0.050,1.0330,0.0020,139.995,45.000,34414.08009,1.91051,392.060,32.306,45.069,45.000,0.00,0.10,-272.74,-272.80,-6,994,-4,22.8,29.4,4.1,22.6,30.2,4.2,5.73,1.86,2.0,26.9
2015-07-28 01:14:00,0.0,1.89087,0.00049,387.070,0.061,1.0324,0.0018,139.999,45.000,34416.37051,1.91082,392.044,32.311,45.068,45.000,0.00,0.10,-272.73,-272.79,-6,995,-4,22.8,29.3,4.0,22.6,30.1,4.2,5.73,1.93,2.0,26.9
2015-07-28 01:15:00,0.0,1.89070,0.00039,386.994,0.048,1.0335,0.0021,139.997,45.000,34415.90455,1.91054,391.965,32.314,45.068,45.000,0.00,0.10,-272.73,-272.79,-6,995,-5,22.8,29.4,4.1,22.6,30.2,4.2,5.73,2.02,2.0,26.9
2015-07-28 01:16:00,0.0,1.89091,0.00054,387.004,0.036,1.0317,0.0019,139.998,45.000,34414.56873,1.91076,391.969,32.316,45.068,45.000,0.00,0.10,-272.73,-272.79,-7,994,-4,22.9,29.3,4.0,22.6,30.2,4.2,5.73,1.98,2.0,26.9
2015-07-28 01:17:00,0.0,1.89063,0.00032,387.051,0.048,1.0296,0.0022,140.000,45.000,34413.83511,1.91046,392.002,32.323,45.068,45.000,0.00,0.10,-272.73,-272.80,-6,995,-4,22.8,29.3,4.0,22.6,30.1,4.2,5.73,1.88,2.0,26.9
2015-07-28 01:18:00,0.0,1.89041,0.00039,387.023,0.085,1.0273,0.0018,140.003,45.000,34416.72011,1.91018,391.970,32.317,45.068,45.000,0.00,0.10,-272.73,-272.79,-6,995,-4,22.9,29.2,4.0,22.6,30.0,4.2,5.73,1.91,2.0,27.0
2015-07-28 01:19:00,0.0,1.88957,0.00039,386.923,0.124,1.0305,0.0025,139.999,45.000,34417.20856,1.90940,391.875,32.343,45.068,45.000,0.00,0.10,-272.73,-272.79,-7,994,-4,22.8,29.3,4.0,22.6,30.1,4.2,5.73,2.01,2.0,26.9
2015-07-28 01:20:00,0.0,1.88968,0.00046,386.977,0.044,1.0291,0.0013,140.002,45.000,34414.03541,1.90943,391.935,32.325,45.068,45.000,0.00,0.10,-272.73,-272.79,-7,994,-4,22.9,29.3,4.0,22.6,30.1,4.2,5.73,2.00,2.0,26.9
2015-07-28 01:21:00,0.0,1.88910,0.00042,387.063,0.086,1.0292,0.0020,140.002,45.000,34416.94079,1.90893,392.010,32.323,45.068,45.000,0.00,0.10,-272.73,-272.79,-6,994,-4,22.9,29.2,4.0,22.6,30.1,4.2,5.73,1.89,2.1,26.9
2015-07-28 01:22:00,0.0,1.88950,0.00045,387.118,0.051,1.0280,0.0020,140.002,45.000,34419.25980,1.90926,392.066,32.330,45.068,45.000,0.00,0.10,-272.73,-272.80,-7,995,-4,22.9,29.2,4.0,22.6,30.0,4.2,5.73,1.88,2.0,26.9
2015-07-28 01:23:00,0.0,1.88958,0.00040,387.049,0.064,1.0281,0.0014,139.999,45.000,34416.71217,1.90932,391.995,32.338,45.068,45.000,0.00,0.10,-272.73,-272.80,-7,995,-4,22.8,29.3,4.0,22.6,30.0,4.2,5.73,1.98,2.1,26.9
2015-07-28 01:24:00,0.0,1.88993,0.00051,387.062,0.108,1.0277,0.0014,139.998,45.000,34416.56788,1.90965,392.005,32.338,45.068,45.000,0.00,0.10,-272.73,-272.79,-6,995,-4,22.9,29.2,4.0,22.6,30.0,4.1,5.73,2.02,2.0,27.0
2015-07-28 01:25:00,0.0,1.88974,0.00040,387.103,0.055,1.0239,0.0023,140.004,45.000,34420.00384,1.90945,392.035,32.356,45.068,45.000,0.00,0.10,-272.73,-272.79,-6,995,-4,22.9,29.1,3.9,22.6,29.9,4.1,5.73,1.93,2.1,26.9
2015-07-28 01:26:00,0.0,1.88978,0.00033,386.911,0.061,1.0270,0.0021,140.002,45.000,34418.33518,1.90948,391.856,32.367,45.068,45.000,0.00,0.10,-272.73,-272.79,-7,995,-4,22.9,29.2,4.0,22.6,30.0,4.1,5.73,1.87,2.0,27.0
2015-07-28 01:27:00,0.0,1.89025,0.00042,386.881,0.085,1.0292,0.0017,139.997,45.000,34416.79862,1.91001,391.823,32.349,45.068,45.000,0.00,0.10,-272.74,-272.80,-6,994,-5,22.9,29.2,4.0,22.6,30.0,4.2,5.73,1.95,2.0,26.9
2015-07-28 01:28:00,0.0,1.89063,0.00037,387.022,0.039,1.0250,0.0019,140.001,45.000,34416.78601,1.91033,391.954,32.319,45.068,45.000,0.00,0.10,-272.73,-272.79,-6,995,-4,22.9,29.1,3.9,22.6,29.9,4.1,5.73,2.03,2.0,26.9
2015-07-28 01:29:00,0.0,1.89086,0.00038,386.987,0.044,1.0267,0.0016,140.001,45.000,34416.60156,1.91060,391.931,32.315,45.068,45.000,0.00,0.10,-272.73,-272.78,-7,995,-4,22.9,29.2,4.0,22.7,30.0,4.2,5.73,1.96,2.0,26.9
2015-07-28 01:30:00,0.0,1.89081,0.00039,386.902,0.060,1.0265,0.0018,139.998,45.000,34416.35583,1.91054,391.837,32.329,45.069,45.000,0.00,0.10,-272.73,-272.79,-7,994,-4,22.9,29.2,4.0,22.7,30.0,4.2,5.73,1.86,2.0,27.0
2015-07-28 01:31:00,0.0,1.89077,0.00035,386.892,0.093,1.0258,0.0021,139.996,45.000,34417.10113,1.91054,391.832,32.331,45.068,45.000,0.00,0.10,-272.73,-272.79,-6,994,-4,22.9,29.2,4.0,22.6,30.0,4.2,5.73,1.91,2.1,26.9
2015-07-28 01:32:00,0.0,1.89106,0.00033,386.705,0.117,1.0280,0.0019,140.000,45.000,34418.03477,1.91078,391.642,32.330,45.068,45.000,0.00,0.10,-272.73,-272.79,-7,995,-4,22.9,29.2,4.0,22.6,30.0,4.2,5.73,2.01,2.1,27.0
2015-07-28 01:33:00,0.0,1.89135,0.00032,386.841,0.084,1.0271,0.0018,140.003,45.000,34417.07031,1.91110,391.787,32.345,45.068,45.000,0.00,0.10,-272.73,-272.79,-7,995,-4,22.9,29.2,4.0,22.6,30.0,4.2,5.73,1.99,2.0,27.0
2015-07-28 01:34:00,0.0,1.89146,0.00028,386.759,0.070,1.0283,0.0016,139.999,45.000,34416.70703,1.91123,391.703,32.333,45.068,45.000,0.00,0.10,-272.73,-272.80,-6,995,-4,22.9,29.2,4.0,22.6,30.0,4.2,5.73,1.89,2.0,27.0
2015-07-28 01:35:00,0.0,1.89162,0.00070,386.715,0.123,1.0283,0.0016,140.001,45.000,34417.81862,1.91136,391.658,32.355,45.068,45.000,0.00,0.10,-272.72,-272.79,-6,995,-4,22.9,29.2,4.0,22.6,30.0,4.2,5.73,1.88,2.1,27.0
2015-07-28 01:36:00,0.0,1.89161,0.00041,386.719,0.095,1.0291,0.0019,139.998,45.000,34416.92045,1.91144,391.660,32.356,45.068,45.000,0.00,0.10,-272.73,-272.79,-7,995,-4,22.9,29.2,4.0,22.7,30.1,4.2,5.73,1.99,2.1,27.0
2015-07-28 01:37:00,0.0,1.89161,0.00029,386.962,0.052,1.0282,0.0028,140.000,45.000,34418.60198,1.91139,391.909,32.335,45.068,45.000,0.00,0.10,-272.74,-272.80,-6,994,-4,22.9,29.2,4.0,22.6,30.0,4.2,5.73,2.01,2.1,27.0
2015-07-28 01:38:00,0.0,1.89160,0.00043,386.939,0.029,1.0287,0.0023,139.995,45.000,34413.75754,1.91137,391.888,32.337,45.068,45.000,0.00,0.10,-272.73,-272.80,-6,995,-4,22.9,29.2,4.0,22.6,30.0,4.2,5.73,1.91,2.1,27.0
2015-07-28 01:39:00,0.0,1.89194,0.00037,386.918,0.044,1.0276,0.0023,140.001,45.000,34416.50520,1.91173,391.860,32.355,45.068,45.000,0.00,0.10,-272.73,-272.79,-7,995,-4,22.9,29.2,4.0,22.7,30.0,4.2,5.73,1.86,2.1,27.0
2015-07-28 01:40:00,0.0,1.89234,0.00046,386.927,0.043,1.0249,0.0021,139.998,45.000,34417.32383,1.91203,391.858,32.348,45.068,45.000,0.00,0.10,-272.73,-272.79,-7,995,-4,22.9,29.1,3.9,22.6,29.9,4.1,5.73,1.96,2.0,27.0
2015-07-28 01:41:00,0.0,1.89199,0.00037,386.833,0.049,1.0235,0.0024,139.997,45.000,34416.87097,1.91172,391.754,32.355,45.068,45.000,0.00,0.10,-272.74,-272.79,-6,994,-4,22.9,29.1,3.9,22.6,29.9,4.1,5.73,2.02,2.1,27.0
2015-07-28 01:42:00,0.0,1.89243,0.00058,386.931,0.062,1.0220,0.0012,140.003,45.000,34419.41269,1.91206,391.845,32.348,45.068,45.000,0.00,0.10,-272.73,-272.78,-6,995,-4,22.9,29.0,3.9,22.7,29.8,4.1,5.73,1.94,2.1,27.0
2015-07-28 01:43:00,0.0,1.89243,0.00034,386.906,0.027,1.0190,0.0017,139.998,45.000,34419.49730,1.91206,391.809,32.335,45.068,45.000,0.00,0.10,-272.73,-272.79,-7,995,-4,22.9,28.9,3.8,22.6,29.7,4.1,5.73,1.86,2.0,27.0
2015-07-28 01:44:00,0.0,1.89251,0.00046,386.676,0.077,1.0204,0.0016,140.000,45.000,34419.07385,1.91207,391.585,32.331,45.068,45.000,0.00,0.10,-272.73,-272.79,-7,995,-4,22.9,29.0,3.9,22.6,29.8,4.1,5.73,1.93,2.0,27.0
2015-07-28 01:45:00,0.0,1.89328,0.00037,386.680,0.043,1.0195,0.0019,140.001,45.000,34419.11700,1.91290,391.578,32.340,45.068,45.000,0.00,0.10,-272.73,-272.79,-6,995,-4,22.9,28.9,3.8,22.7,29.8,4.1,5.73,2.03,2.1,27.0
2015-07-28 01:46:00,0.0,1.89326,0.00059,386.583,0.067,1.0204,0.0025,140.002,45.000,34418.80231,1.91285,391.488,32.341,45.068,45.000,0.00,0.10,-272.73,-272.79,-7,995,-5,22.9,29.0,3.9,22.6,29.8,4.1,5.73,1.97,2.1,27.0
2015-07-28 01:47:00,0.0,1.89406,0.00042,386.567,0.089,1.0203,0.0020,140.001,45.000,34418.28467,1.91372,391.475,32.327,45.068,45.000,0.00,0.10,-272.73,-272.80,-7,995,-4,22.9,29.0,3.9,22.6,29.8,4.1,5.73,1.87,2.1,27.0
2015-07-28 01:48:00,0.0,1.89470,0.00047,386.546,0.070,1.0221,0.0020,140.001,45.000,34420.71454,1.91432,391.449,32.353,45.068,45.000,0.00,0.10,-272.72,-272.79,-6,995,-4,22.9,29.0,3.9,22.7,29.8,4.1,5.73,1.90,2.1,27.0